User: anonymous   Login
Location: Unspecified
(0.0000°N, 0.0000°E)
Time: 03:18:53
(UTC+00:00)
Language:

USA 247 - Orbit

View from above orbital plane
View from above orbital plane
View from above satellite
View from above satellite

Ground track
Ground track

The orbit data is extracted from the following two-line orbital elements,

1 39462U 13072A   15133.06640836 0.00000000  00000-0  00000-0 0    06
2 39462 122.9997  47.8360 0002250 146.8137 213.1862 13.41437708    03
Epoch (UTC): 13 May 2015 01:35:37
Eccentricity: 0.0002250
inclination: 122.9997°
perigee height: 1102 km
apogee height: 1105 km
right ascension of ascending node: 47.8360°
argument of perigee: 146.8137°
revolutions per day: 13.41437708
mean anomaly at epoch: 213.1862°
orbit number at epoch: 0

The dashed part of the orbit path shows where the satellite is in the earth's shadow,  

DLR